User: anonymous   Login
Location: Homewood
(41.1836°S, 175.9581°E)
Time: 16:32:14
(UTC+00:00)
Language:

Cosmos 1943 Rocket - Orbit

View from above orbital plane
View from above orbital plane
View from above satellite
View from above satellite

Ground track
Ground track

The orbit data is extracted from the following two-line orbital elements,

1 19120U 88039B   24173.67193094 -.00000086  00000-0 -17700-4 0  9992
2 19120  71.0154 312.0844 0023417 224.3978 135.5270 14.19418443869541
Epoch (UTC): 21 June 2024 16:07:34
Eccentricity: 0.0023417
inclination: 71.0154°
perigee height: 810 km
apogee height: 844 km
right ascension of ascending node: 312.0844°
argument of perigee: 224.3978°
revolutions per day: 14.19418443
mean anomaly at epoch: 135.5270°
orbit number at epoch: 86954

The dashed part of the orbit path shows where the satellite is in the earth's shadow,  

DLR